Time,TemperatureF,DewpointF,PressureIn,WindDirection,WindDirectionDegrees,WindSpeedMPH,WindSpeedGustMPH,Humidity,HourlyPrecipIn,Conditions,Clouds,dailyrainin,SoftwareType,DateUTC
2013-05-14 00:07:00,48.0,30.0,30.02,NNW,329,8.0,11.0,51,0.00,,,0.00,weatherlink.com 1.10,2013-05-14 04:07:00,
2013-05-14 00:22:00,47.7,30.0,30.02,NNW,338,9.0,13.0,51,0.00,,,0.00,weatherlink.com 1.10,2013-05-14 04:22:00,
2013-05-14 00:37:00,47.7,31.0,30.03,North,9,1.0,13.0,53,0.00,,,0.00,weatherlink.com 1.10,2013-05-14 04:37:00,
2013-05-14 00:52:00,47.5,31.0,30.03,NNW,327,7.0,11.0,53,0.00,,,0.00,weatherlink.com 1.10,2013-05-14 04:52:00,
2013-05-14 01:07:00,47.1,31.0,30.03,North,355,7.0,13.0,54,0.00,,,0.00,weatherlink.com 1.10,2013-05-14 05:07:00,
2013-05-14 01:22:00,46.9,31.0,30.02,NNW,344,0.0,14.0,55,0.00,,,0.00,weatherlink.com 1.10,2013-05-14 05:22:00,
2013-05-14 01:37:00,46.9,32.0,30.02,NNW,347,6.0,11.0,56,0.00,,,0.00,weatherlink.com 1.10,2013-05-14 05:37:00,
2013-05-14 01:52:00,47.0,31.0,30.02,NNW,347,8.0,15.0,55,0.00,,,0.00,weatherlink.com 1.10,2013-05-14 05:52:00,
2013-05-14 02:07:00,46.8,32.0,30.02,NW,306,4.0,10.0,56,0.00,,,0.00,weatherlink.com 1.10,2013-05-14 06:07:00,
2013-05-14 02:22:00,46.7,32.0,30.02,North,360,3.0,9.0,56,0.00,,,0.00,weatherlink.com 1.10,2013-05-14 06:22:00,
2013-05-14 02:37:00,46.1,31.0,30.01,North,355,5.0,12.0,57,0.00,,,0.00,weatherlink.com 1.10,2013-05-14 06:37:00,
2013-05-14 02:53:00,45.9,32.0,30.01,NNE,28,11.0,11.0,59,0.00,,,0.00,weatherlink.com 1.10,2013-05-14 06:53:00,
2013-05-14 03:08:00,45.4,32.0,30.02,ENE,60,5.0,10.0,60,0.00,,,0.00,weatherlink.com 1.10,2013-05-14 07:08:00,
2013-05-14 03:23:00,45.3,32.0,30.01,North,355,6.0,12.0,61,0.00,,,0.00,weatherlink.com 1.10,2013-05-14 07:23:00,
2013-05-14 03:38:00,45.0,33.0,30.02,North,351,6.0,11.0,62,0.00,,,0.00,weatherlink.com 1.10,2013-05-14 07:38:00,
2013-05-14 03:53:00,44.8,32.0,30.02,NNW,334,7.0,11.0,62,0.00,,,0.00,weatherlink.com 1.10,2013-05-14 07:53:00,
2013-05-14 04:08:00,44.7,32.0,30.01,North,355,7.0,10.0,62,0.00,,,0.00,weatherlink.com 1.10,2013-05-14 08:08:00,
2013-05-14 04:23:00,44.6,33.0,30.02,NW,305,4.0,10.0,63,0.00,,,0.00,weatherlink.com 1.10,2013-05-14 08:23:00,
2013-05-14 04:38:00,44.5,32.0,30.01,ENE,65,0.0,10.0,63,0.00,,,0.00,weatherlink.com 1.10,2013-05-14 08:38:00,
2013-05-14 04:53:00,44.0,33.0,30.02,NNE,14,6.0,11.0,65,0.00,,,0.00,weatherlink.com 1.10,2013-05-14 08:53:00,
2013-05-14 05:08:00,44.0,32.0,30.02,NNW,344,10.0,12.0,64,0.00,,,0.00,weatherlink.com 1.10,2013-05-14 09:08:00,
2013-05-14 05:23:00,43.8,33.0,30.02,NNW,336,0.0,12.0,66,0.00,,,0.00,weatherlink.com 1.10,2013-05-14 09:23:00,
2013-05-14 05:38:00,43.7,33.0,30.03,North,5,5.0,12.0,65,0.00,,,0.00,weatherlink.com 1.10,2013-05-14 09:38:00,
2013-05-14 05:53:00,44.1,33.0,30.03,NW,311,1.0,10.0,65,0.00,,,0.00,weatherlink.com 1.10,2013-05-14 09:53:00,
2013-05-14 06:08:00,44.5,33.0,30.04,ENE,69,4.0,11.0,64,0.00,,,0.00,weatherlink.com 1.10,2013-05-14 10:08:00,
2013-05-14 06:23:00,44.4,33.0,30.04,NE,46,1.0,10.0,65,0.00,,,0.00,weatherlink.com 1.10,2013-05-14 10:23:00,
2013-05-14 06:38:00,44.3,33.0,30.04,ENE,61,8.0,14.0,65,0.00,,,0.00,weatherlink.com 1.10,2013-05-14 10:38:00,
2013-05-14 06:53:00,45.0,33.0,30.05,NNW,342,2.0,9.0,64,0.00,,,0.00,weatherlink.com 1.10,2013-05-14 10:53:00,
2013-05-14 07:08:00,44.8,33.0,30.05,NNW,340,4.0,14.0,64,0.00,,,0.00,weatherlink.com 1.10,2013-05-14 11:08:00,
2013-05-14 07:23:00,45.4,34.0,30.05,NW,319,5.0,11.0,64,0.00,,,0.00,weatherlink.com 1.10,2013-05-14 11:23:00,
2013-05-14 07:38:00,46.5,34.0,30.06,North,360,6.0,17.0,62,0.00,,,0.00,weatherlink.com 1.10,2013-05-14 11:38:00,
2013-05-14 07:52:00,47.3,34.0,30.05,ENE,63,12.0,13.0,61,0.00,,,0.00,weatherlink.com 1.10,2013-05-14 11:52:00,
2013-05-14 08:07:00,47.7,34.0,30.05,NNE,28,7.0,20.0,59,0.00,,,0.00,weatherlink.com 1.10,2013-05-14 12:07:00,
2013-05-14 08:23:00,48.7,33.0,30.06,NE,50,5.0,16.0,56,0.00,,,0.00,weatherlink.com 1.10,2013-05-14 12:23:00,
2013-05-14 08:38:00,49.2,34.0,30.05,ENE,63,2.0,12.0,57,0.00,,,0.00,weatherlink.com 1.10,2013-05-14 12:38:00,
2013-05-14 08:53:00,50.0,33.0,30.05,NE,36,2.0,15.0,53,0.00,,,0.00,weatherlink.com 1.10,2013-05-14 12:53:00,
2013-05-14 09:08:00,51.3,31.0,30.05,NE,44,5.0,16.0,47,0.00,,,0.00,weatherlink.com 1.10,2013-05-14 13:08:00,
2013-05-14 09:23:00,52.0,30.0,30.04,NNE,22,11.0,13.0,43,0.00,,,0.00,weatherlink.com 1.10,2013-05-14 13:23:00,
2013-05-14 09:38:00,52.0,30.0,30.04,ENE,69,7.0,17.0,43,0.00,,,0.00,weatherlink.com 1.10,2013-05-14 13:38:00,
2013-05-14 09:53:00,52.6,30.0,30.03,NW,313,6.0,14.0,42,0.00,,,0.00,weatherlink.com 1.10,2013-05-14 13:53:00,
2013-05-14 10:08:00,53.1,30.0,30.04,North,360,11.0,14.0,41,0.00,,,0.00,weatherlink.com 1.10,2013-05-14 14:08:00,
2013-05-14 10:23:00,52.7,28.0,30.03,NNW,339,6.0,19.0,39,0.00,,,0.00,weatherlink.com 1.10,2013-05-14 14:23:00,
2013-05-14 10:38:00,52.8,29.0,30.04,NE,36,8.0,16.0,41,0.00,,,0.00,weatherlink.com 1.10,2013-05-14 14:38:00,
2013-05-14 10:53:00,53.6,30.0,30.03,ENE,59,11.0,16.0,40,0.00,,,0.00,weatherlink.com 1.10,2013-05-14 14:53:00,
2013-05-14 11:08:00,54.2,30.0,30.03,East,79,6.0,14.0,39,0.00,,,0.00,weatherlink.com 1.10,2013-05-14 15:08:00,
2013-05-14 11:23:00,53.7,30.0,30.03,NNE,20,2.0,15.0,40,0.00,,,0.00,weatherlink.com 1.10,2013-05-14 15:23:00,
2013-05-14 11:38:00,54.1,29.0,30.03,NNW,346,3.0,13.0,39,0.00,,,0.00,weatherlink.com 1.10,2013-05-14 15:38:00,
2013-05-14 11:53:00,54.1,30.0,30.03,NE,56,6.0,14.0,40,0.00,,,0.00,weatherlink.com 1.10,2013-05-14 15:53:00,
2013-05-14 12:08:00,53.4,29.0,30.02,WNW,294,14.0,16.0,39,0.00,,,0.00,weatherlink.com 1.10,2013-05-14 16:08:00,
2013-05-14 12:23:00,54.7,29.0,30.02,North,10,5.0,11.0,38,0.00,,,0.00,weatherlink.com 1.10,2013-05-14 16:23:00,
2013-05-14 12:38:00,53.9,30.0,30.02,NW,304,2.0,21.0,40,0.00,,,0.00,weatherlink.com 1.10,2013-05-14 16:38:00,
2013-05-14 12:53:00,53.7,30.0,30.02,NW,305,2.0,17.0,40,0.00,,,0.00,weatherlink.com 1.10,2013-05-14 16:53:00,
2013-05-14 13:08:00,55.2,29.0,30.01,North,350,3.0,16.0,37,0.00,,,0.00,weatherlink.com 1.10,2013-05-14 17:08:00,
2013-05-14 13:23:00,56.1,29.0,30.01,NW,321,15.0,16.0,35,0.00,,,0.00,weatherlink.com 1.10,2013-05-14 17:23:00,
2013-05-14 13:38:00,56.2,29.0,30.01,NW,317,11.0,18.0,35,0.00,,,0.00,weatherlink.com 1.10,2013-05-14 17:38:00,
2013-05-14 13:53:00,56.8,28.0,30.01,ENE,67,9.0,19.0,33,0.00,,,0.00,weatherlink.com 1.10,2013-05-14 17:53:00,
2013-05-14 14:08:00,56.7,27.0,30.00,NNW,346,11.0,17.0,32,0.00,,,0.00,weatherlink.com 1.10,2013-05-14 18:08:00,
2013-05-14 14:23:00,57.4,28.0,30.00,NNW,346,6.0,15.0,32,0.00,,,0.00,weatherlink.com 1.10,2013-05-14 18:23:00,
2013-05-14 14:38:00,56.5,27.0,30.00,NW,311,8.0,23.0,32,0.00,,,0.00,weatherlink.com 1.10,2013-05-14 18:38:00,
2013-05-14 14:53:00,56.8,28.0,30.00,ENE,65,9.0,16.0,33,0.00,,,0.00,weatherlink.com 1.10,2013-05-14 18:53:00,
2013-05-14 15:08:00,56.9,28.0,29.99,NW,305,14.0,18.0,33,0.00,,,0.00,weatherlink.com 1.10,2013-05-14 19:08:00,
2013-05-14 15:23:00,56.9,27.0,29.99,NNW,338,14.0,20.0,32,0.00,,,0.00,weatherlink.com 1.10,2013-05-14 19:23:00,
2013-05-14 15:38:00,57.3,26.0,29.98,NNW,331,13.0,18.0,30,0.00,,,0.00,weatherlink.com 1.10,2013-05-14 19:38:00,
2013-05-14 15:53:00,56.3,29.0,29.99,North,350,8.0,23.0,35,0.00,,,0.00,weatherlink.com 1.10,2013-05-14 19:53:00,
2013-05-14 16:08:00,56.6,28.0,29.98,NW,313,6.0,12.0,33,0.00,,,0.00,weatherlink.com 1.10,2013-05-14 20:08:00,
2013-05-14 16:23:00,57.5,28.0,29.98,ENE,78,1.0,17.0,33,0.00,,,0.00,weatherlink.com 1.10,2013-05-14 20:23:00,
2013-05-14 16:38:00,57.7,26.0,29.98,NNE,29,10.0,17.0,30,0.00,,,0.00,weatherlink.com 1.10,2013-05-14 20:38:00,
2013-05-14 16:53:00,57.5,28.0,29.98,NW,312,14.0,15.0,33,0.00,,,0.00,weatherlink.com 1.10,2013-05-14 20:53:00,
2013-05-14 17:08:00,56.5,28.0,29.98,NNW,348,11.0,15.0,34,0.00,,,0.00,weatherlink.com 1.10,2013-05-14 21:08:00,
2013-05-14 17:23:00,57.2,29.0,29.98,NNE,22,1.0,16.0,34,0.00,,,0.00,weatherlink.com 1.10,2013-05-14 21:23:00,
2013-05-14 17:38:00,57.2,27.0,29.98,North,355,10.0,17.0,32,0.00,,,0.00,weatherlink.com 1.10,2013-05-14 21:38:00,
2013-05-14 17:53:00,56.9,28.0,29.98,NW,326,5.0,12.0,33,0.00,,,0.00,weatherlink.com 1.10,2013-05-14 21:53:00,
2013-05-14 18:08:00,56.6,28.0,29.98,NNW,336,6.0,17.0,34,0.00,,,0.00,weatherlink.com 1.10,2013-05-14 22:08:00,
2013-05-14 18:23:00,57.7,29.0,29.97,NNW,342,3.0,13.0,33,0.00,,,0.00,weatherlink.com 1.10,2013-05-14 22:23:00,
2013-05-14 18:38:00,57.6,28.0,29.98,NNW,341,6.0,13.0,32,0.00,,,0.00,weatherlink.com 1.10,2013-05-14 22:38:00,
2013-05-14 18:53:00,56.7,28.0,29.98,NNW,336,5.0,13.0,34,0.00,,,0.00,weatherlink.com 1.10,2013-05-14 22:53:00,
2013-05-14 19:08:00,56.7,27.0,29.98,NW,306,8.0,12.0,32,0.00,,,0.00,weatherlink.com 1.10,2013-05-14 23:08:00,
2013-05-14 19:23:00,56.2,27.0,29.99,NW,304,6.0,15.0,32,0.00,,,0.00,weatherlink.com 1.10,2013-05-14 23:23:00,
2013-05-14 19:38:00,56.0,28.0,30.00,NNW,347,3.0,18.0,34,0.00,,,0.00,weatherlink.com 1.10,2013-05-14 23:38:00,
2013-05-14 19:53:00,55.9,28.0,30.00,WNW,288,3.0,13.0,34,0.00,,,0.00,weatherlink.com 1.10,2013-05-14 23:53:00,
2013-05-14 20:08:00,55.6,28.0,30.00,WNW,301,6.0,15.0,35,0.00,,,0.00,weatherlink.com 1.10,2013-05-15 00:08:00,
2013-05-14 20:23:00,55.1,28.0,30.01,NNW,344,7.0,10.0,36,0.00,,,0.00,weatherlink.com 1.10,2013-05-15 00:23:00,
2013-05-14 20:38:00,54.9,28.0,30.01,NW,309,5.0,11.0,36,0.00,,,0.00,weatherlink.com 1.10,2013-05-15 00:38:00,
2013-05-14 20:53:00,54.7,29.0,30.02,NW,304,7.0,12.0,37,0.00,,,0.00,weatherlink.com 1.10,2013-05-15 00:53:00,
2013-05-14 21:08:00,54.5,29.0,30.03,NW,322,7.0,15.0,38,0.00,,,0.00,weatherlink.com 1.10,2013-05-15 01:08:00,
2013-05-14 21:23:00,54.0,29.0,30.04,NW,304,6.0,15.0,39,0.00,,,0.00,weatherlink.com 1.10,2013-05-15 01:23:00,
2013-05-14 21:38:00,53.6,30.0,30.04,NNW,336,5.0,10.0,40,0.00,,,0.00,weatherlink.com 1.10,2013-05-15 01:38:00,
2013-05-14 21:53:00,53.2,29.0,30.04,WNW,303,6.0,12.0,40,0.00,,,0.00,weatherlink.com 1.10,2013-05-15 01:53:00,
2013-05-14 22:08:00,52.9,30.0,30.04,WNW,303,7.0,12.0,41,0.00,,,0.00,weatherlink.com 1.10,2013-05-15 02:08:00,
2013-05-14 22:23:00,52.5,29.0,30.04,NW,304,6.0,12.0,41,0.00,,,0.00,weatherlink.com 1.10,2013-05-15 02:23:00,
2013-05-14 22:38:00,52.2,30.0,30.04,West,274,8.0,12.0,43,0.00,,,0.00,weatherlink.com 1.10,2013-05-15 02:38:00,
2013-05-14 22:53:00,51.9,30.0,30.04,WNW,302,8.0,14.0,44,0.00,,,0.00,weatherlink.com 1.10,2013-05-15 02:53:00,
2013-05-14 23:09:00,51.7,31.0,30.04,WNW,294,9.0,14.0,45,0.00,,,0.00,weatherlink.com 1.10,2013-05-15 03:09:00,
2013-05-14 23:24:00,51.4,31.0,30.04,WNW,300,6.0,14.0,46,0.00,,,0.00,weatherlink.com 1.10,2013-05-15 03:24:00,
2013-05-14 23:39:00,51.3,31.0,30.04,WNW,288,8.0,13.0,47,0.00,,,0.00,weatherlink.com 1.10,2013-05-15 03:39:00,
2013-05-14 23:54:00,50.9,32.0,30.05,WNW,295,4.0,11.0,48,0.00,,,0.00,weatherlink.com 1.10,2013-05-15 03:54:00,